Regional Weather Roundup
Issued by NWS Mt. Holly, NJ

Home | Current Version | Previous Version | Text Only | Print | Product List | Glossary On
Versions: 1 2 3 4 5 6 7 8 9 10 11 12 13 14 15 16 17 18 19 20 21 22 23 24 25 26 27 28 29 30 31 32 33 34 35 36 37 38 39 40 41 42 43 44 45 46 47 48 49 50
000
ASUS41 KPHI 270110
RWRPHI

REGIONAL WEATHER ROUNDUP
NATIONAL WEATHER SERVICE MOUNT HOLLY NJ
800 PM EST FRI DEC 26 2014

NOTE:  "FAIR" INDICATES FEW OR NO CLOUDS BELOW 12,000 FEET WITH NO
SIGNIFICANT WEATHER AND/OR OBSTRUCTIONS TO VISIBILITY.

 * = STATION DOES NOT REPORT PRECIPITATION (E.G. RAIN, SNOW, ETC.)
        OR FOG.

NJZ015>026-270200-
SOUTHERN NEW JERSEY

CITY           SKY/WX    TMP DP  RH WIND       PRES   REMARKS
POMONA         CLEAR     34  28  79 CALM      30.27R
RIO GRANDE*    CLEAR     43  30  61 W7        30.27S
MILLVILLE      CLEAR     30  29  96 CALM      30.28R
WRIGHTSTOWN    CLEAR     37  30  74 W6        30.24R WCI  33
MOUNT HOLLY    CLEAR     35  29  78 CALM      30.27R
TRENTON        CLEAR     41  30  65 W6        30.24S

$$
NJZ001>014-270200-
NORTHERN NEW JERSEY

CITY           SKY/WX    TMP DP  RH WIND       PRES   REMARKS
SUSSEX         CLEAR     36  28  73 SW5       30.21R WCI  32
ANDOVER*       NOT AVBL
MORRISTOWN     CLEAR     36  30  80 CALM      30.23S
NEWARK         PTCLDY    43  30  60 SW8       30.23S
TETERBORO      CLEAR     42  29  59 S3        30.22S
CALDWELL       CLEAR     40  29  64 W5        30.23R
SOMERVILLE     CLEAR     32  28  85 CALM      30.23R
ALLAIRE*       CLEAR     39  27  60 W7        30.24S WCI  34
TOMS RIVER*    CLEAR     30  28  93 CALM      30.25F

$$
PAZ043-044-047-054-055-060>062-066>071-270200-
EASTERN PENNSYLVANIA

CITY           SKY/WX    TMP DP  RH WIND       PRES   REMARKS
PHILADELPHIA   MOCLDY    42  31  64 SW7       30.28R
NORTH PHILA    CLEAR     42  29  59 W3        30.28R
BLUE BELL      CLEAR     34  32  93 CALM      30.25S
DOYLESTOWN     CLEAR     37  30  75 SW5       30.24R WCI  33
POTTSTOWN      CLEAR     35  29  78 CALM      30.26S
LANCASTER      CLEAR     36  29  75 CALM      30.26R
COATESVILLE    CLEAR     41  32  70 SW3       30.26R
READING        CLEAR     37  29  72 SW3       30.24S
ALLENTOWN      CLEAR     36  28  73 SW3       30.24S
MOUNT POCONO   CLEAR     34  26  72 W9        30.18R WCI  27
HAZLETON       CLEAR     34  28  80 CALM      30.22F
WILKES BARRE   CLEAR     34  27  75 S7        30.20S WCI  28

$$
DEZALL-MDZ008-012-015-019-020-270200-
DELAWARE AND EASTERN MARYLAND

CITY           SKY/WX    TMP DP  RH WIND       PRES   REMARKS
WILMINGTON     CLEAR     42  31  64 W3        30.29R
DOVER          CLEAR     39  31  73 SW6       30.27R WCI  35
GEORGETOWN     CLEAR     39  32  76 SW3       30.30R
PATUXENT       PTCLDY    41  31  67 S6        30.30R
OCEAN CITY     CLEAR     33  31  92 SW5       30.31R WCI  29
WALLOPS ISLAND CLEAR     40  34  79 CALM      30.32R
CAMBRIDGE      CLEAR     36  32  87 CALM      30.30R
SALISBURY      CLEAR     34  29  82 NE3       30.30R

$$
PAZ001-021-NYZ056-072-MDZ011-DCZ001-270200-
OTHER NEARBY LOCATIONS

CITY           SKY/WX    TMP DP  RH WIND       PRES   REMARKS
HARRISBURG     PTCLDY    35  29  78 CALM      30.25S
STATE COLLEGE  CLEAR     37  28  70 SW6       30.21S WCI  33
WILLIAMSPORT   CLEAR     34  28  79 CALM      30.22S
BINGHAMTON     CLEAR     36  27  69 SW8       30.15S WCI  30
NEW YORK CITY  CLEAR     46  29  51 VRB5      30.25R
BALTIMORE      PTCLDY    40  31  70 SW3       30.28R
WASHINGTON DC  PTCLDY    44  35  70 CALM      30.30R

$$


USA.gov is the U.S. government's official web portal to all federal, state and local government web resources and services.